| time (UTC) | temp F | wind direction | speed MPH | gust MPH | rain 1hr in | rain 24hr in | rain mn in | humidity % | barometer mb |
| 20260505223433 | 89 | 15 | 0.0 | 8.0 | 0.00 | 0.00 | 0.00 | 57 | 1004.3 |
| 20260505222733 | 90 | 10 | 5.0 | 8.0 | 0.00 | 0.00 | 0.00 | 57 | 1004.3 |
| 20260505222033 | 90 | 5 | 5.0 | 8.0 | 0.00 | 0.00 | 0.00 | 56 | 1004.3 |
| 20260505221333 | 90 | 1 | 5.0 | 8.0 | 0.00 | 0.00 | 0.00 | 56 | 1004.3 |
| 20260505220633 | 90 | 11 | 0.0 | 8.0 | 0.00 | 0.00 | 0.00 | 55 | 1004.3 |
| 20260505215933 | 90 | 26 | 2.0 | 8.0 | 0.00 | 0.00 | 0.00 | 55 | 1004.3 |
| 20260505215233 | 91 | 20 | 8.0 | 8.0 | 0.00 | 0.00 | 0.00 | 54 | 1004.3 |
| 20260505214533 | 91 | 8 | 5.0 | 10.0 | 0.00 | 0.00 | 0.00 | 54 | 1004.3 |
| 20260505213833 | 90 | 6 | 2.0 | 10.0 | 0.00 | 0.00 | 0.00 | 54 | 1004.3 |
| 20260505213133 | 91 | 13 | 2.0 | 10.0 | 0.00 | 0.00 | 0.00 | 54 | 1004.7 |
| 20260505212433 | 92 | 46 | 5.0 | 10.0 | 0.00 | 0.00 | 0.00 | 54 | 1004.7 |
| 20260505211033 | 91 | 7 | 5.0 | 17.0 | 0.00 | 0.00 | 0.00 | 55 | 1004.7 |
| 20260505210333 | 91 | 346 | 5.0 | 17.0 | 0.00 | 0.00 | 0.00 | 55 | 1004.7 |
| 20260505205634 | 91 | 355 | 2.0 | 17.0 | 0.00 | 0.00 | 0.00 | 56 | 1005.0 |
| 20260505204933 | 91 | 31 | 5.0 | 17.0 | 0.00 | 0.00 | 0.00 | 55 | 1005.0 |
| 20260505203533 | 91 | 3 | 2.0 | 17.0 | 0.00 | 0.00 | 0.00 | 55 | 1005.0 |
| 20260505202833 | 91 | 3 | 5.0 | 17.0 | 0.00 | 0.00 | 0.00 | 57 | 1005.3 |
| 20260505202133 | 90 | 8 | 5.0 | 17.0 | 0.00 | 0.00 | 0.00 | 57 | 1005.3 |
| 20260505201433 | 90 | 27 | 5.0 | 17.0 | 0.00 | 0.00 | 0.00 | 59 | 1005.3 |
| 20260505200033 | 89 | 9 | 0.0 | 17.0 | 0.00 | 0.00 | 0.00 | 59 | 1005.7 |
| 20260505195333 | 89 | 58 | 5.0 | 17.0 | 0.00 | 0.00 | 0.00 | 60 | 1005.7 |
| 20260505194633 | 89 | 18 | 5.0 | 17.0 | 0.00 | 0.00 | 0.00 | 62 | 1005.3 |
| 20260505193933 | 88 | 69 | 5.0 | 17.0 | 0.00 | 0.00 | 0.00 | 62 | 1005.7 |
| 20260505193232 | 88 | 294 | 5.0 | 17.0 | 0.00 | 0.00 | 0.00 | 62 | 1005.7 |
| 20260505192533 | 88 | 6 | 5.0 | 17.0 | 0.00 | 0.00 | 0.00 | 63 | 1005.7 |
| 20260505191833 | 87 | 6 | 5.0 | 17.0 | 0.00 | 0.00 | 0.00 | 63 | 1005.7 |
| 20260505191132 | 87 | 8 | 5.0 | 17.0 | 0.00 | 0.00 | 0.00 | 64 | 1005.3 |
| 20260505190433 | 86 | 98 | 11.0 | 17.0 | 0.00 | 0.00 | 0.00 | 64 | 1005.7 |
| 20260505185732 | 86 | 4 | 8.0 | 14.0 | 0.00 | 0.00 | 0.00 | 65 | 1006.0 |
| 20260505185033 | 85 | 17 | 5.0 | 14.0 | 0.00 | 0.00 | 0.00 | 66 | 1006.0 |
| 20260505184333 | 84 | 12 | 2.0 | 14.0 | 0.00 | 0.00 | 0.00 | 66 | 1006.0 |
| 20260505183632 | 84 | 13 | 5.0 | 14.0 | 0.00 | 0.00 | 0.00 | 66 | 1006.0 |
| 20260505182933 | 84 | 106 | 11.0 | 14.0 | 0.00 | 0.00 | 0.00 | 66 | 1006.0 |
| 20260505182232 | 84 | 9 | 0.0 | 14.0 | 0.00 | 0.00 | 0.00 | 67 | 1006.0 |
| 20260505181532 | 84 | 16 | 5.0 | 14.0 | 0.00 | 0.00 | 0.00 | 67 | 1006.0 |
| 20260505180833 | 84 | 10 | 5.0 | 14.0 | 0.00 | 0.00 | 0.00 | 67 | 1006.0 |
| 20260505180133 | 83 | 13 | 0.0 | 14.0 | 0.00 | 0.00 | 0.00 | 67 | 1006.3 |
| 20260505175433 | 84 | 331 | 5.0 | 14.0 | 0.00 | 0.00 | 0.00 | 67 | 1006.3 |
| 20260505174732 | 84 | 332 | 14.0 | 14.0 | 0.00 | 0.00 | 0.00 | 67 | 1006.0 |
| 20260505174033 | 84 | 80 | 8.0 | 14.0 | 0.00 | 0.00 | 0.00 | 67 | 1006.3 |
| 20260505173332 | 83 | 30 | 5.0 | 14.0 | 0.00 | 0.00 | 0.00 | 68 | 1006.0 |
| 20260505172632 | 83 | 3 | 5.0 | 14.0 | 0.00 | 0.00 | 0.00 | 67 | 1006.0 |
| 20260505171932 | 83 | 24 | 2.0 | 12.0 | 0.00 | 0.00 | 0.00 | 67 | 1006.3 |
| 20260505171232 | 83 | 11 | 2.0 | 12.0 | 0.00 | 0.00 | 0.00 | 68 | 1006.3 |
| 20260505170533 | 83 | 356 | 8.0 | 12.0 | 0.00 | 0.00 | 0.00 | 68 | 1006.0 |
| 20260505165833 | 83 | 39 | 5.0 | 19.0 | 0.00 | 0.00 | 0.00 | 69 | 1006.3 |
| 20260505165133 | 82 | 10 | 5.0 | 19.0 | 0.00 | 0.00 | 0.00 | 70 | 1006.3 |
| 20260505164433 | 81 | 29 | 5.0 | 19.0 | 0.00 | 0.00 | 0.00 | 70 | 1006.3 |
| 20260505163733 | 81 | 358 | 8.0 | 19.0 | 0.00 | 0.00 | 0.00 | 70 | 1006.3 |
| 20260505163033 | 81 | 73 | 5.0 | 19.0 | 0.00 | 0.00 | 0.00 | 70 | 1006.0 |
| 20260505160932 | 81 | 358 | 8.0 | 14.0 | 0.00 | 0.00 | 0.00 | 71 | 1006.0 |
| 20260505152733 | 79 | 358 | 8.0 | 14.0 | 0.00 | 0.00 | 0.00 | 74 | 1006.0 |
| 20260505152032 | 78 | 355 | 8.0 | 14.0 | 0.00 | 0.00 | 0.00 | 75 | 1006.3 |
| 20260505151333 | 77 | 0 | 5.0 | 14.0 | 0.00 | 0.00 | 0.00 | 75 | 1006.0 |
| 20260505150634 | 77 | 74 | 8.0 | 14.0 | 0.00 | 0.00 | 0.00 | 75 | 1006.3 |
| 20260505140332 | 74 | 39 | 5.0 | 10.0 | 0.00 | 0.00 | 0.00 | 79 | 1006.3 |
| 20260505124832 | 72 | 0 | 5.0 | 17.0 | 0.00 | 0.00 | 0.00 | 80 | 1005.7 |
| 20260505124132 | 71 | 354 | 8.0 | 17.0 | 0.00 | 0.00 | 0.00 | 80 | 1005.7 |
| 20260505122733 | 71 | 13 | 2.0 | 17.0 | 0.00 | 0.00 | 0.00 | 80 | 1005.0 |
| 20260505122032 | 71 | 15 | 5.0 | 17.0 | 0.00 | 0.00 | 0.00 | 81 | 1005.0 |
| 20260505121333 | 71 | 16 | 2.0 | 17.0 | 0.00 | 0.00 | 0.00 | 80 | 1005.3 |
| 20260505120632 | 71 | 8 | 2.0 | 17.0 | 0.00 | 0.00 | 0.00 | 80 | 1005.3 |
| 20260505115232 | 71 | 340 | 8.0 | 17.0 | 0.00 | 0.00 | 0.00 | 80 | 1005.0 |
| 20260505114532 | 71 | 18 | 17.0 | 17.0 | 0.00 | 0.00 | 0.00 | 80 | 1005.0 |
| 20260505113831 | 71 | 355 | 2.0 | 17.0 | 0.00 | 0.00 | 0.00 | 80 | 1005.0 |
| 20260505113132 | 71 | 3 | 5.0 | 14.0 | 0.00 | 0.00 | 0.00 | 80 | 1005.0 |
| 20260505112432 | 71 | 26 | 5.0 | 14.0 | 0.00 | 0.00 | 0.00 | 80 | 1005.0 |
| 20260505111732 | 71 | 24 | 2.0 | 14.0 | 0.00 | 0.00 | 0.00 | 80 | 1005.0 |
| 20260505111032 | 71 | 9 | 5.0 | 14.0 | 0.00 | 0.00 | 0.00 | 80 | 1005.0 |
| 20260505110332 | 71 | 13 | 8.0 | 14.0 | 0.00 | 0.00 | 0.00 | 79 | 1005.0 |
| 20260505101432 | 71 | 52 | 5.0 | 19.0 | 0.00 | 0.00 | 0.00 | 79 | 1005.0 |
| 20260505100732 | 71 | 12 | 5.0 | 19.0 | 0.00 | 0.00 | 0.00 | 78 | 1005.3 |
| 20260505100032 | 71 | 6 | 5.0 | 19.0 | 0.00 | 0.00 | 0.00 | 78 | 1005.3 |
| 20260505095332 | 71 | 31 | 5.0 | 12.0 | 0.00 | 0.00 | 0.00 | 78 | 1005.0 |
| 20260505094632 | 71 | 8 | 2.0 | 12.0 | 0.00 | 0.00 | 0.00 | 78 | 1005.3 |
| 20260505093932 | 71 | 348 | 2.0 | 17.0 | 0.00 | 0.00 | 0.00 | 78 | 1005.3 |
| 20260505093232 | 71 | 36 | 5.0 | 17.0 | 0.00 | 0.00 | 0.00 | 78 | 1005.3 |
| 20260505091132 | 71 | 17 | 2.0 | 17.0 | 0.00 | 0.00 | 0.00 | 78 | 1005.7 |
| 20260505090432 | 71 | 40 | 5.0 | 17.0 | 0.00 | 0.00 | 0.00 | 78 | 1005.3 |
| 20260505085731 | 71 | 42 | 5.0 | 17.0 | 0.00 | 0.00 | 0.00 | 78 | 1005.3 |
| 20260505085031 | 71 | 14 | 0.0 | 17.0 | 0.00 | 0.00 | 0.00 | 78 | 1005.3 |
| 20260505084331 | 71 | 22 | 8.0 | 14.0 | 0.00 | 0.00 | 0.00 | 77 | 1005.7 |
| 20260505082931 | 71 | 34 | 5.0 | 14.0 | 0.00 | 0.00 | 0.00 | 78 | 1005.3 |
| 20260505082231 | 71 | 35 | 2.0 | 14.0 | 0.00 | 0.00 | 0.00 | 77 | 1005.7 |
| 20260505081531 | 71 | 43 | 5.0 | 14.0 | 0.00 | 0.00 | 0.00 | 77 | 1005.7 |
| 20260505080831 | 71 | 59 | 5.0 | 14.0 | 0.00 | 0.00 | 0.00 | 77 | 1005.7 |
| 20260505080132 | 71 | 24 | 2.0 | 14.0 | 0.00 | 0.00 | 0.00 | 77 | 1005.3 |
| 20260505074731 | 71 | 342 | 8.0 | 14.0 | 0.00 | 0.00 | 0.00 | 76 | 1006.0 |
| 20260505073331 | 72 | 11 | 5.0 | 10.0 | 0.00 | 0.00 | 0.00 | 75 | 1006.0 |
| 20260505072631 | 72 | 0 | 5.0 | 10.0 | 0.00 | 0.00 | 0.00 | 75 | 1006.3 |
| 20260505071932 | 72 | 6 | 5.0 | 10.0 | 0.00 | 0.00 | 0.00 | 75 | 1006.3 |
| 20260505071231 | 72 | 18 | 5.0 | 10.0 | 0.00 | 0.00 | 0.00 | 75 | 1006.3 |
| 20260505070531 | 72 | 18 | 2.0 | 10.0 | 0.00 | 0.00 | 0.00 | 74 | 1006.7 |
| 20260505065831 | 72 | 340 | 11.0 | 10.0 | 0.00 | 0.00 | 0.00 | 74 | 1006.3 |
| 20260505065131 | 72 | 44 | 8.0 | 10.0 | 0.00 | 0.00 | 0.00 | 74 | 1006.7 |
| 20260505063731 | 72 | 10 | 2.0 | 10.0 | 0.00 | 0.00 | 0.00 | 73 | 1007.0 |
| 20260505063031 | 72 | 32 | 5.0 | 14.0 | 0.00 | 0.00 | 0.00 | 73 | 1007.0 |
| 20260505062331 | 73 | 344 | 14.0 | 14.0 | 0.00 | 0.00 | 0.00 | 72 | 1007.0 |
| 20260505061631 | 72 | 2 | 5.0 | 14.0 | 0.00 | 0.00 | 0.00 | 72 | 1007.0 |
| 20260505060934 | 72 | 353 | 2.0 | 14.0 | 0.00 | 0.00 | 0.00 | 72 | 1007.0 |
| 20260505060231 | 72 | 79 | 14.0 | 14.0 | 0.00 | 0.00 | 0.00 | 72 | 1007.0 |
| 20260505055531 | 73 | 13 | 5.0 | 14.0 | 0.00 | 0.00 | 0.00 | 72 | 1007.0 |
| 20260505054832 | 73 | 351 | 2.0 | 14.0 | 0.00 | 0.00 | 0.00 | 71 | 1007.0 |
| 20260505054131 | 72 | 336 | 8.0 | 14.0 | 0.00 | 0.00 | 0.00 | 71 | 1007.0 |
| 20260505053431 | 72 | 27 | 14.0 | 14.0 | 0.00 | 0.00 | 0.00 | 71 | 1007.0 |
| 20260505052732 | 73 | 10 | 2.0 | 14.0 | 0.00 | 0.00 | 0.00 | 71 | 1007.0 |
| 20260505052031 | 73 | 32 | 2.0 | 14.0 | 0.00 | 0.00 | 0.00 | 71 | 1007.0 |
| 20260505050631 | 73 | 7 | 8.0 | 14.0 | 0.00 | 0.00 | 0.00 | 70 | 1007.0 |
| 20260505041731 | 73 | 9 | 5.0 | 10.0 | 0.00 | 0.00 | 0.00 | 68 | 1007.4 |
| 20260505041031 | 74 | 21 | 2.0 | 10.0 | 0.00 | 0.00 | 0.00 | 68 | 1007.4 |
| 20260505040333 | 74 | 1 | 2.0 | 10.0 | 0.00 | 0.00 | 0.00 | 68 | 1007.4 |
| 20260505035631 | 74 | 23 | 5.0 | 12.0 | 0.00 | 0.00 | 0.00 | 68 | 1007.4 |
| 20260505034931 | 74 | 63 | 8.0 | 12.0 | 0.00 | 0.00 | 0.00 | 67 | 1007.4 |
| 20260505034231 | 74 | 38 | 8.0 | 12.0 | 0.00 | 0.00 | 0.00 | 67 | 1007.0 |
| 20260505033531 | 74 | 53 | 14.0 | 12.0 | 0.00 | 0.00 | 0.00 | 67 | 1007.0 |
| 20260505032831 | 74 | 5 | 5.0 | 12.0 | 0.00 | 0.00 | 0.00 | 66 | 1007.4 |
| 20260505032131 | 74 | 359 | 5.0 | 12.0 | 0.00 | 0.00 | 0.00 | 66 | 1007.4 |
| 20260505031431 | 74 | 29 | 5.0 | 12.0 | 0.00 | 0.00 | 0.00 | 66 | 1007.4 |
| 20260505030731 | 74 | 14 | 5.0 | 12.0 | 0.00 | 0.00 | 0.00 | 66 | 1007.7 |
| 20260505030031 | 75 | 42 | 5.0 | 10.0 | 0.00 | 0.00 | 0.00 | 66 | 1007.7 |
| 20260505025331 | 75 | 354 | 5.0 | 10.0 | 0.00 | 0.00 | 0.00 | 65 | 1007.4 |
| 20260505024631 | 75 | 50 | 2.0 | 10.0 | 0.00 | 0.00 | 0.00 | 65 | 1007.7 |
| 20260505023932 | 75 | 72 | 11.0 | 10.0 | 0.00 | 0.00 | 0.00 | 65 | 1007.4 |
| 20260505023231 | 75 | 23 | 11.0 | 10.0 | 0.00 | 0.00 | 0.00 | 65 | 1007.4 |
| 20260505022531 | 75 | 67 | 8.0 | 10.0 | 0.00 | 0.00 | 0.00 | 65 | 1007.0 |
| 20260505021832 | 75 | 30 | 5.0 | 10.0 | 0.00 | 0.00 | 0.00 | 64 | 1007.0 |
| 20260505020432 | 75 | 10 | 2.0 | 10.0 | 0.00 | 0.00 | 0.00 | 63 | 1007.0 |
| 20260505015732 | 75 | 19 | 5.0 | 10.0 | 0.00 | 0.00 | 0.00 | 63 | 1007.0 |
| 20260505015031 | 76 | 13 | 2.0 | 10.0 | 0.00 | 0.00 | 0.00 | 63 | 1007.0 |
| 20260505013630 | 76 | 34 | 0.0 | 10.0 | 0.00 | 0.00 | 0.00 | 62 | 1007.4 |
| 20260505012931 | 76 | 35 | 2.0 | 12.0 | 0.00 | 0.00 | 0.00 | 62 | 1007.4 |
| 20260505011531 | 77 | 11 | 5.0 | 19.0 | 0.00 | 0.00 | 0.00 | 61 | 1007.0 |
| 20260505010831 | 77 | 56 | 8.0 | 19.0 | 0.00 | 0.00 | 0.00 | 61 | 1007.0 |
| 20260505005431 | 77 | 5 | 0.0 | 19.0 | 0.00 | 0.00 | 0.00 | 60 | 1007.0 |
| 20260505004730 | 78 | 346 | 8.0 | 19.0 | 0.00 | 0.00 | 0.00 | 60 | 1007.0 |
| 20260505004030 | 78 | 30 | 8.0 | 19.0 | 0.00 | 0.00 | 0.00 | 60 | 1007.0 |
| 20260505002630 | 78 | 18 | 5.0 | 21.0 | 0.00 | 0.00 | 0.00 | 59 | 1007.0 |
| 20260505001931 | 78 | 30 | 5.0 | 21.0 | 0.00 | 0.00 | 0.00 | 59 | 1007.4 |
| 20260505000532 | 78 | 2 | 5.0 | 21.0 | 0.00 | 0.00 | 0.00 | 58 | 1007.4 |
| 20260504235831 | 79 | 119 | 11.0 | 21.0 | 0.00 | 0.00 | 0.00 | 58 | 1007.4 |
| 20260504235133 | 79 | 31 | 5.0 | 21.0 | 0.00 | 0.00 | 0.00 | 58 | 1007.4 |
| 20260504234433 | 79 | 16 | 8.0 | 21.0 | 0.00 | 0.00 | 0.00 | 58 | 1007.7 |
| 20260504233733 | 79 | 216 | 8.0 | 25.0 | 0.00 | 0.00 | 0.00 | 57 | 1007.4 |
| 20260504233033 | 79 | 357 | 5.0 | 25.0 | 0.00 | 0.00 | 0.00 | 58 | 1007.7 |
| 20260504232333 | 79 | 27 | 5.0 | 25.0 | 0.00 | 0.00 | 0.00 | 57 | 1007.7 |
| 20260504231633 | 80 | 356 | 19.0 | 25.0 | 0.00 | 0.00 | 0.00 | 57 | 1007.4 |
| 20260504230933 | 80 | 9 | 5.0 | 25.0 | 0.00 | 0.00 | 0.00 | 56 | 1007.4 |
| 20260504225533 | 80 | 11 | 14.0 | 25.0 | 0.00 | 0.00 | 0.00 | 56 | 1008.0 |
| 20260504224833 | 80 | 358 | 5.0 | 25.0 | 0.00 | 0.00 | 0.00 | 56 | 1008.0 |
| 20260504224133 | 80 | 0 | 34.0 | 25.0 | 0.00 | 0.00 | 0.00 | 56 | 1008.0 |